When you browse on this site, cookies collect data to enhance your experience and personalize the content and advertising you see.
Visit our Privacy Policy to learn more. By continuing to use the site, you agree to this use of cookies and data.
  • In Hungary
  • List of Countries
  • For 7 days
  • Water Temperature
  • Satellite Maps
  • Weather Map
  • News
  • Weather Widgets
  • user-avatar
    Login

    Hourly Weather Ourense

    Today, 21 November, Wednesday

    Time Temperature Precipitation Wind Pressure Humidity
    00:00 +9°C° 0 mm 1 mps 725 mmHg 96%
    01:00 +8°C° 0 mm 1 mps 725 mmHg 96%
    02:00 +8°C° 0 mm 1 mps 725 mmHg 96%
    03:00 +8°C° 0.2 mm 1 mps 725 mmHg 96%
    04:00 +8°C° 0.2 mm 1 mps 725 mmHg 96%
    05:00 +7°C° 0.2 mm 2 mps 725 mmHg 96%
    06:00 +8°C° 0.3 mm 2 mps 726 mmHg 94%
    07:00 +8°C° 0.3 mm 2 mps 726 mmHg 92%
    08:00 +9°C° 0.3 mm 2 mps 726 mmHg 90%
    09:00 +9°C° 0.4 mm 3 mps 727 mmHg 86%
    10:00 +10°C° 0.4 mm 3 mps 727 mmHg 82%
    11:00 +11°C° 0.4 mm 4 mps 727 mmHg 78%
    12:00 +11°C° 0.3 mm 4 mps 727 mmHg 79%
    13:00 +10°C° 0.3 mm 4 mps 727 mmHg 79%
    14:00 +10°C° 0.3 mm 4 mps 727 mmHg 80%
    15:00 +9°C° 0.3 mm 3 mps 728 mmHg 84%
    16:00 +8°C° 0.3 mm 2 mps 728 mmHg 88%
    17:00 +8°C° 0.3 mm 2 mps 728 mmHg 92%
    18:00 +7°C° 0.2 mm 2 mps 729 mmHg 92%
    19:00 +7°C° 0.2 mm 2 mps 729 mmHg 93%
    20:00 +7°C° 0.2 mm 2 mps 729 mmHg 94%
    21:00 +7°C° 0.2 mm 2 mps 729 mmHg 93%
    22:00 +7°C° 0.2 mm 2 mps 730 mmHg 93%
    23:00 +7°C° 0.2 mm 2 mps 730 mmHg 93%

    Tomorrow, 22 November, Thursday

    Time Temperature Precipitation Wind Pressure Humidity
    00:00 +7°C° 0.2 mm 2 mps 730 mmHg 93%
    01:00 +7°C° 0.2 mm 2 mps 730 mmHg 94%
    02:00 +6°C° 0.2 mm 2 mps 730 mmHg 94%
    03:00 +6°C° 0.1 mm 2 mps 730 mmHg 94%
    04:00 +6°C° 0.1 mm 2 mps 729 mmHg 93%
    05:00 +6°C° 0.1 mm 2 mps 729 mmHg 93%
    06:00 +7°C° 0 mm 2 mps 730 mmHg 92%
    07:00 +7°C° 0 mm 2 mps 730 mmHg 91%
    08:00 +8°C° 0 mm 2 mps 730 mmHg 90%
    09:00 +9°C° 0.1 mm 3 mps 730 mmHg 85%
    10:00 +10°C° 0.1 mm 3 mps 730 mmHg 81%
    11:00 +10°C° 0.1 mm 4 mps 730 mmHg 77%
    12:00 +11°C° 0.1 mm 3 mps 730 mmHg 75%
    13:00 +11°C° 0.1 mm 3 mps 730 mmHg 74%
    14:00 +11°C° 0.1 mm 3 mps 730 mmHg 72%
    15:00 +10°C° 0.1 mm 3 mps 730 mmHg 78%
    16:00 +9°C° 0.1 mm 2 mps 730 mmHg 83%
    17:00 +8°C° 0.1 mm 2 mps 730 mmHg 88%
    18:00 +8°C° 0.1 mm 2 mps 731 mmHg 89%
    19:00 +8°C° 0.1 mm 2 mps 731 mmHg 90%
    20:00 +8°C° 0.1 mm 2 mps 732 mmHg 91%
    21:00 +8°C° 0.1 mm 1 mps 732 mmHg 92%
    22:00 +8°C° 0.1 mm 1 mps 732 mmHg 93%
    23:00 +8°C° 0.1 mm 1 mps 732 mmHg 95%

    Day after tomorrow, 23 November, Friday

    Time Temperature Precipitation Wind Pressure Humidity
    00:00 +8°C° 0 mm 1 mps 732 mmHg 95%
    01:00 +7°C° 0 mm 1 mps 732 mmHg 96%
    02:00 +7°C° 0 mm 1 mps 732 mmHg 97%
    03:00 +7°C° 0 mm 1 mps 732 mmHg 96%
    04:00 +7°C° 0 mm 1 mps 732 mmHg 96%
    05:00 +7°C° 0 mm 1 mps 732 mmHg 96%
    06:00 +6°C° 0.1 mm 2 mps 732 mmHg 94%
    07:00 +7°C° 0.1 mm 2 mps 733 mmHg 92%
    08:00 +7°C° 0.1 mm 2 mps 733 mmHg 90%
    09:00 +8°C° 0.1 mm 2 mps 733 mmHg 86%
    10:00 +9°C° 0.1 mm 3 mps 733 mmHg 82%
    11:00 +10°C° 0.1 mm 4 mps 733 mmHg 78%
    12:00 +10°C° 0.2 mm 3 mps 732 mmHg 78%
    13:00 +10°C° 0.2 mm 3 mps 732 mmHg 79%
    14:00 +10°C° 0.2 mm 3 mps 732 mmHg 79%
    15:00 +9°C° 0.1 mm 3 mps 732 mmHg 83%
    16:00 +8°C° 0.1 mm 2 mps 732 mmHg 87%
    17:00 +8°C° 0.1 mm 2 mps 732 mmHg 90%
    18:00 +8°C° 0.1 mm 2 mps 732 mmHg 91%
    19:00 +7°C° 0.1 mm 2 mps 733 mmHg 92%
    20:00 +7°C° 0.1 mm 2 mps 733 mmHg 92%
    21:00 +7°C° 0.3 mm 2 mps 733 mmHg 93%
    22:00 +7°C° 0.3 mm 2 mps 733 mmHg 93%
    23:00 +7°C° 0.3 mm 2 mps 733 mmHg 93%

    24 November, Saturday

    Time Temperature Precipitation Wind Pressure Humidity
    00:00 +8°C° 0.4 mm 2 mps 733 mmHg 94%
    01:00 +8°C° 0.4 mm 2 mps 732 mmHg 94%
    02:00 +8°C° 0.4 mm 2 mps 732 mmHg 94%
    03:00 +8°C° 0.2 mm 2 mps 732 mmHg 94%
    04:00 +8°C° 0.2 mm 2 mps 732 mmHg 94%
    05:00 +8°C° 0.2 mm 2 mps 731 mmHg 95%
    06:00 +8°C° 0 mm 2 mps 731 mmHg 93%
    07:00 +8°C° 0 mm 2 mps 731 mmHg 92%
    08:00 +8°C° 0 mm 2 mps 731 mmHg 90%
    09:00 +10°C° 0 mm 3 mps 731 mmHg 85%
    10:00 +11°C° 0 mm 3 mps 731 mmHg 80%
    11:00 +12°C° 0 mm 4 mps 730 mmHg 74%
    12:00 +11°C° 0.5 mm 4 mps 729 mmHg 77%
    13:00 +11°C° 0.5 mm 3 mps 729 mmHg 80%
    14:00 +10°C° 0.5 mm 3 mps 728 mmHg 83%
    15:00 +10°C° 0.4 mm 3 mps 727 mmHg 86%
    16:00 +9°C° 0.4 mm 3 mps 727 mmHg 88%
    17:00 +9°C° 0.4 mm 2 mps 726 mmHg 91%
    18:00 +9°C° 0.1 mm 2 mps 726 mmHg 91%
    19:00 +9°C° 0.1 mm 2 mps 726 mmHg 92%
    20:00 +9°C° 0.1 mm 2 mps 726 mmHg 92%
    21:00 +10°C° 0.5 mm 2 mps 726 mmHg 93%
    22:00 +10°C° 0.5 mm 2 mps 726 mmHg 95%
    23:00 +10°C° 0.5 mm 2 mps 726 mmHg 96%

    25 November, Sunday

    Time Temperature Precipitation Wind Pressure Humidity
    00:00 +10°C° 0.1 mm 2 mps 727 mmHg 96%
    01:00 +10°C° 0.1 mm 2 mps 727 mmHg 96%
    02:00 +12°C° 0.1 mm 1 mps 728 mmHg 96%
    03:00 +11°C° 0.1 mm 1 mps 728 mmHg 97%
    04:00 +11°C° 0.1 mm 1 mps 728 mmHg 97%
    05:00 +11°C° 0.1 mm 1 mps 729 mmHg 97%
    06:00 +11°C° 0 mm 1 mps 729 mmHg 96%
    07:00 +11°C° 0 mm 1 mps 730 mmHg 95%
    08:00 +11°C° 0 mm 1 mps 730 mmHg 94%
    09:00 +12°C° 0 mm 1 mps 730 mmHg 90%
    10:00 +12°C° 0 mm 2 mps 730 mmHg 87%
    11:00 +11°C° 0 mm 3 mps 730 mmHg 83%
    12:00 +11°C° 0.2 mm 3 mps 730 mmHg 82%
    13:00 +11°C° 0.2 mm 3 mps 730 mmHg 82%
    14:00 +11°C° 0.2 mm 3 mps 729 mmHg 81%
    15:00 +11°C° 1 mm 3 mps 730 mmHg 85%
    16:00 +10°C° 1 mm 3 mps 730 mmHg 89%
    17:00 +10°C° 1 mm 3 mps 730 mmHg 93%
    18:00 +9°C° 0.5 mm 3 mps 730 mmHg 92%
    19:00 +8°C° 0.5 mm 3 mps 731 mmHg 90%
    20:00 +8°C° 0.5 mm 3 mps 732 mmHg 89%
    21:00 +7°C° 0 mm 3 mps 733 mmHg 90%
    22:00 +7°C° 0 mm 2 mps 733 mmHg 91%
    23:00 +6°C° 0 mm 2 mps 734 mmHg 92%

    26 November, Monday

    Time Temperature Precipitation Wind Pressure Humidity
    00:00 +6°C° 0 mm 2 mps 734 mmHg 93%
    01:00 +6°C° 0 mm 2 mps 734 mmHg 94%
    02:00 +6°C° 0 mm 2 mps 734 mmHg 94%
    03:00 +6°C° 0 mm 2 mps 734 mmHg 95%
    04:00 +6°C° 0 mm 2 mps 735 mmHg 95%
    05:00 +6°C° 0 mm 2 mps 735 mmHg 95%
    06:00 +7°C° 0.1 mm 2 mps 735 mmHg 94%
    07:00 +7°C° 0.1 mm 2 mps 735 mmHg 92%
    08:00 +8°C° 0.1 mm 3 mps 735 mmHg 91%
    09:00 +8°C° 0.5 mm 3 mps 735 mmHg 90%
    10:00 +8°C° 0.5 mm 4 mps 734 mmHg 90%
    11:00 +8°C° 0.5 mm 4 mps 734 mmHg 89%
    12:00 +8°C° 1.9 mm 4 mps 733 mmHg 90%
    13:00 +10°C° 1.9 mm 4 mps 733 mmHg 91%
    14:00 +10°C° 1.9 mm 4 mps 732 mmHg 92%
    15:00 +10°C° 2.2 mm 4 mps 733 mmHg 94%
    16:00 +9°C° 2.2 mm 3 mps 733 mmHg 95%
    17:00 +9°C° 2.2 mm 2 mps 733 mmHg 96%
    18:00 +9°C° 0.9 mm 2 mps 733 mmHg 96%
    19:00 +9°C° 0.9 mm 2 mps 733 mmHg 96%
    20:00 +9°C° 0.9 mm 3 mps 733 mmHg 96%
    21:00 +9°C° 1.6 mm 3 mps 733 mmHg 96%
    22:00 +9°C° 1.6 mm 3 mps 733 mmHg 96%
    23:00 +9°C° 1.6 mm 3 mps 733 mmHg 96%
    Show more